EN

Hourly Weather Amersfoort

Today, 28 January, Thursday

Time Temperature Precipitation Wind Pressure Humidity
00:00 +6°C° 0 mm 1 mps 756 mmHg 97%
01:00 +6°C° 0 mm 1 mps 756 mmHg 97%
02:00 +6°C° 0 mm 1 mps 755 mmHg 97%
03:00 +6°C° 0 mm 1 mps 754 mmHg 97%
04:00 +6°C° 0.2 mm 1 mps 753 mmHg 97%
05:00 +5°C° 0.2 mm 2 mps 753 mmHg 98%
06:00 +5°C° 0.2 mm 2 mps 752 mmHg 98%
07:00 +4°C° 1 mm 3 mps 751 mmHg 97%
08:00 +4°C° 1 mm 4 mps 750 mmHg 96%
09:00 +4°C° 1 mm 4 mps 749 mmHg 96%
10:00 +4°C° 1.6 mm 4 mps 749 mmHg 96%
11:00 +4°C° 1.6 mm 4 mps 749 mmHg 96%
12:00 +4°C° 1.6 mm 4 mps 749 mmHg 95%
13:00 +4°C° 0.3 mm 3 mps 749 mmHg 95%
14:00 +4°C° 0.3 mm 3 mps 749 mmHg 95%
15:00 +4°C° 0.3 mm 3 mps 749 mmHg 94%
16:00 +3°C° 0.1 mm 3 mps 750 mmHg 94%
17:00 +3°C° 0.1 mm 3 mps 750 mmHg 94%
18:00 +4°C° 0.1 mm 2 mps 750 mmHg 94%
19:00 +3°C° 0 mm 3 mps 750 mmHg 94%
20:00 +3°C° 0 mm 3 mps 750 mmHg 95%
21:00 +3°C° 0 mm 3 mps 750 mmHg 95%
22:00 +3°C° 0 mm 3 mps 750 mmHg 96%
23:00 +4°C° 0 mm 3 mps 749 mmHg 96%

Tomorrow, 29 January, Friday

Time Temperature Precipitation Wind Pressure Humidity
00:00 +4°C° 0 mm 3 mps 749 mmHg 97%
01:00 +5°C° 1 mm 3 mps 747 mmHg 97%
02:00 +5°C° 1 mm 3 mps 746 mmHg 98%
03:00 +6°C° 1 mm 4 mps 744 mmHg 98%
04:00 +6°C° 1.4 mm 5 mps 744 mmHg 95%
05:00 +7°C° 1.4 mm 6 mps 743 mmHg 92%
06:00 +7°C° 1.4 mm 6 mps 743 mmHg 90%
07:00 +6°C° 0 mm 7 mps 743 mmHg 88%
08:00 +6°C° 0 mm 7 mps 743 mmHg 87%
09:00 +6°C° 0 mm 7 mps 744 mmHg 86%
10:00 +7°C° 0.1 mm 6 mps 744 mmHg 84%
11:00 +8°C° 0.1 mm 6 mps 744 mmHg 81%
12:00 +8°C° 0.1 mm 6 mps 744 mmHg 78%
13:00 +8°C° 0.1 mm 5 mps 744 mmHg 80%
14:00 +8°C° 0.1 mm 5 mps 744 mmHg 82%
15:00 +7°C° 0.1 mm 4 mps 744 mmHg 83%
16:00 +7°C° 0.1 mm 4 mps 745 mmHg 86%
17:00 +6°C° 0.1 mm 4 mps 746 mmHg 89%
18:00 +5°C° 0.1 mm 4 mps 746 mmHg 91%
19:00 +6°C° 0.1 mm 5 mps 747 mmHg 90%
20:00 +6°C° 0.1 mm 5 mps 747 mmHg 88%
21:00 +6°C° 0.1 mm 5 mps 748 mmHg 86%
22:00 +3°C° 0.1 mm 5 mps 749 mmHg 87%
23:00 +3°C° 0.1 mm 4 mps 749 mmHg 87%

Day after tomorrow, 30 January, Saturday

Time Temperature Precipitation Wind Pressure Humidity
00:00 0°C° 0.1 mm 4 mps 749 mmHg 88%
01:00 -1°C° 0 mm 4 mps 750 mmHg 86%
02:00 -1°C° 0 mm 4 mps 750 mmHg 85%
03:00 -2°C° 0 mm 4 mps 750 mmHg 83%
04:00 -2°C° 0 mm 4 mps 750 mmHg 83%
05:00 -2°C° 0 mm 4 mps 750 mmHg 82%
06:00 -2°C° 0 mm 4 mps 750 mmHg 82%
07:00 -2°C° 0 mm 5 mps 750 mmHg 80%
08:00 -2°C° 0 mm 5 mps 749 mmHg 78%
09:00 -3°C° 0 mm 6 mps 749 mmHg 75%
10:00 -2°C° 0 mm 6 mps 749 mmHg 73%
11:00 -2°C° 0 mm 6 mps 748 mmHg 70%
12:00 -1°C° 0 mm 7 mps 748 mmHg 67%
13:00 -1°C° 0 mm 7 mps 747 mmHg 66%
14:00 -1°C° 0 mm 6 mps 747 mmHg 65%
15:00 -1°C° 0 mm 6 mps 747 mmHg 64%
16:00 -1°C° 0 mm 6 mps 747 mmHg 66%
17:00 -2°C° 0 mm 6 mps 748 mmHg 68%
18:00 -2°C° 0 mm 6 mps 748 mmHg 69%
19:00 -2°C° 0 mm 6 mps 749 mmHg 72%
20:00 -2°C° 0 mm 5 mps 749 mmHg 75%
21:00 -2°C° 0 mm 5 mps 749 mmHg 78%
22:00 -2°C° 0 mm 5 mps 749 mmHg 79%
23:00 -2°C° 0 mm 5 mps 749 mmHg 79%

31 January, Sunday

Time Temperature Precipitation Wind Pressure Humidity
00:00 -2°C° 0 mm 5 mps 749 mmHg 79%
01:00 -2°C° 0 mm 5 mps 749 mmHg 80%
02:00 -3°C° 0 mm 4 mps 749 mmHg 81%
03:00 -3°C° 0 mm 4 mps 749 mmHg 82%
04:00 -3°C° 0 mm 4 mps 749 mmHg 82%
05:00 -3°C° 0 mm 4 mps 750 mmHg 82%
06:00 -3°C° 0 mm 4 mps 750 mmHg 82%
07:00 -3°C° 0 mm 4 mps 750 mmHg 80%
08:00 -3°C° 0 mm 4 mps 750 mmHg 78%
09:00 -3°C° 0 mm 4 mps 750 mmHg 76%
10:00 -2°C° 0 mm 4 mps 749 mmHg 71%
11:00 -1°C° 0 mm 4 mps 749 mmHg 65%
12:00 0°C° 0 mm 4 mps 749 mmHg 60%
13:00 0°C° 0 mm 4 mps 748 mmHg 60%
14:00 0°C° 0 mm 4 mps 748 mmHg 59%
15:00 0°C° 0 mm 4 mps 747 mmHg 59%
16:00 -1°C° 0 mm 4 mps 747 mmHg 63%
17:00 -2°C° 0 mm 4 mps 747 mmHg 67%
18:00 -3°C° 0 mm 4 mps 746 mmHg 70%
19:00 -3°C° 0 mm 4 mps 746 mmHg 71%
20:00 -3°C° 0 mm 4 mps 746 mmHg 73%
21:00 -3°C° 0 mm 4 mps 746 mmHg 74%
22:00 -3°C° 0 mm 4 mps 746 mmHg 75%
23:00 -3°C° 0 mm 4 mps 746 mmHg 76%

1 February, Monday

Time Temperature Precipitation Wind Pressure Humidity
00:00 -3°C° 0 mm 4 mps 746 mmHg 77%
01:00 -3°C° 0 mm 4 mps 746 mmHg 76%
02:00 -3°C° 0 mm 4 mps 746 mmHg 76%
03:00 -3°C° 0 mm 4 mps 746 mmHg 75%
04:00 -3°C° 0 mm 4 mps 747 mmHg 73%
05:00 -3°C° 0 mm 4 mps 747 mmHg 71%
06:00 -4°C° 0 mm 4 mps 748 mmHg 69%
07:00 -3°C° 0 mm 4 mps 748 mmHg 65%
08:00 -3°C° 0 mm 4 mps 749 mmHg 61%
09:00 -2°C° 0 mm 4 mps 750 mmHg 57%
10:00 0°C° 0 mm 3 mps 750 mmHg 51%
11:00 +1°C° 0 mm 3 mps 751 mmHg 46%
12:00 +2°C° 0 mm 3 mps 752 mmHg 40%
13:00 +3°C° 0 mm 2 mps 752 mmHg 44%
14:00 +3°C° 0 mm 2 mps 753 mmHg 47%
15:00 +3°C° 0 mm 2 mps 753 mmHg 50%
16:00 +3°C° 0 mm 1 mps 754 mmHg 56%
17:00 +2°C° 0 mm 1 mps 755 mmHg 62%
18:00 +1°C° 0 mm 1 mps 756 mmHg 68%
19:00 0°C° 0 mm 0 mps 756 mmHg 70%
20:00 0°C° 0 mm 0 mps 757 mmHg 72%
21:00 0°C° 0 mm 0 mps 757 mmHg 74%
22:00 +1°C° 0 mm 1 mps 758 mmHg 74%
23:00 +1°C° 0 mm 1 mps 758 mmHg 73%

2 February, Tuesday

Time Temperature Precipitation Wind Pressure Humidity
00:00 +1°C° 0 mm 1 mps 758 mmHg 72%
01:00 0°C° 0 mm 1 mps 758 mmHg 70%
02:00 -2°C° 0 mm 2 mps 758 mmHg 67%
03:00 -2°C° 0 mm 2 mps 758 mmHg 65%
04:00 -2°C° 0 mm 2 mps 757 mmHg 60%
05:00 -2°C° 0 mm 3 mps 757 mmHg 56%
06:00 -2°C° 0 mm 3 mps 756 mmHg 52%
07:00 -2°C° 0.1 mm 4 mps 756 mmHg 60%
08:00 -2°C° 0.1 mm 5 mps 755 mmHg 68%
09:00 -2°C° 0.1 mm 5 mps 754 mmHg 76%
10:00 -2°C° 1.1 mm 6 mps 753 mmHg 83%
11:00 -2°C° 1.1 mm 6 mps 752 mmHg 89%
12:00 -1°C° 1.1 mm 6 mps 751 mmHg 96%
13:00 +1°C° 1 mm 6 mps 749 mmHg 96%
14:00 +1°C° 1 mm 6 mps 748 mmHg 97%
15:00 +2°C° 1 mm 6 mps 747 mmHg 97%
16:00 +4°C° 0.1 mm 6 mps 747 mmHg 95%
17:00 +5°C° 0.1 mm 6 mps 747 mmHg 94%
18:00 +6°C° 0.1 mm 7 mps 747 mmHg 92%
19:00 +7°C° 0 mm 6 mps 748 mmHg 92%
20:00 +5°C° 0 mm 6 mps 749 mmHg 92%
21:00 +4°C° 0 mm 6 mps 749 mmHg 91%
22:00 +4°C° 0 mm 6 mps 749 mmHg 91%
23:00 +4°C° 0 mm 6 mps 749 mmHg 91%
Show more